EXPRESS AMU-7

Last updated on Sun Apr 12 2026 00:02:56 GMT+0000 (Coordinated Universal Time)

1 50001U 21123A 26101.54937750 -.00000241 00000+0 00000+0 0 9991 2 50001 0.0137 251.6152 0000087 50.7099 240.2202 1.00272123 15877
UTC large
Height (km)
Speed (km/s)
/
Latitude / Longitude
Inclination (degrees)
Orbital Period (minutes)
Azimuth
Elevation
Range (km)
Doppler Factor

Next 0 passes for location: London (51.5072 / 0.1276)

Sorry there are no passes over London.
EXPRESS AMU-7